Home   Weather   Grudziądz   Past weeks

Flag for Poland Past Weather in Grudziądz, Poland — Yesterday and Last 2 Weeks

Now
63 °F

Fog.


Feels Like: 63 °F
Forecast: 57 / 69 °F
Wind: 2 mph from Southeast

Location: Torun

Current Time: Aug 18, 2017 at 7:10:56 am

Latest Report: Aug 18, 2017 at 6:00 am


Visibility: 4 mi

Pressure: 30.01 "Hg

Humidity: 88%

Dew Point: 60 °F

Location of GrudziądzLocation

Past Weather in Grudziądz — Graph

°F

Grudziądz Temperature Yesterday

Maximum temperature yesterday: 72 °F (at 6:00 pm)
Minimum temperature yesterday: 60 °F (at 7:00 am)
Average temperature yesterday: 65 °F

High & Low Weather Summary for the Past Weeks

 TemperatureHumidityPressure
High85 °F (Aug 11, 4:00 pm)97% (Aug 7, 7:00 am)30.31 "Hg (Aug 7, 7:00 am)
Low47 °F (Aug 14, 6:00 am)34% (Aug 8, 1:00 pm)29.78 "Hg (Aug 11, 9:00 pm)
Average67 °F70%30.05 "Hg
* Reported Aug 3 5:00 am — Aug 18 5:00 am, Grudziądz. Weather by CustomWeather, © 2017

Note: Actual official high and low records may vary slightly from our data, if they occured in-between our weather recording intervals... More about our weather records

Advertising

Grudziądz Weather History for the Previous 24 Hours

Scroll right to see more
 ConditionsComfort  
Time TempWeatherWind HumidityBarometerVisibility
5:00 am
Fri, Aug 18
63 °FOvercast.2 mph88%30.01 "Hg5 mi
4:00 am63 °FFog.1 mph87%30.02 "Hg5 mi
3:00 am63 °FOvercast.2 mph87%30.03 "Hg6 mi
2:00 am63 °FPassing clouds.2 mph87%30.03 "Hg6 mi
1:00 am63 °FPassing clouds.1 mph87%30.05 "Hg7 mi
12:00 am64 °FPassing clouds.1 mph84%30.07 "Hg8 mi
11:00 pm
Thu, Aug 17
63 °FPassing clouds.1 mph86%30.08 "Hg9 mi
10:00 pm64 °FPassing clouds.1 mph85%30.09 "Hg7 mi
9:00 pm66 °FOvercast.1 mph78%30.10 "Hg11 mi
8:00 pm68 °FOvercast.1 mph72%30.09 "Hg14 mi
7:00 pm70 °FOvercast.2 mph67%30.10 "Hg17 mi
6:00 pm72 °FPartly sunny.1 mph63%30.11 "Hg25 mi
5:00 pm71 °FPartly sunny.2 mph63%30.12 "Hg18 mi
4:00 pm72 °FPartly sunny.2 mph62%30.13 "Hg14 mi
3:00 pm71 °FPartly sunny.3 mph68%30.15 "Hg12 mi
2:00 pm70 °FOvercast.2 mph71%30.16 "Hg17 mi
1:00 pm69 °FOvercast.1 mph71%30.18 "Hg16 mi
12:00 pm67 °FOvercast.1 mph75%30.19 "Hg11 mi
11:00 am65 °FOvercast.1 mph78%30.19 "Hg9 mi
10:00 am63 °FOvercast.1 mph84%30.20 "Hg7 mi
9:00 am62 °FFog.1 mph91%30.20 "Hg5 mi
8:00 am61 °FFog.1 mph93%30.19 "Hg4 mi
7:00 am60 °FFog.No wind95%30.18 "Hg2 mi
Weather by CustomWeather, © 2017

See weather overviewHow to use our weather pages